GFSMA_850_rhum_210.txt.gz
RH
31 32 29 27 25 22 19 20 18 16 14 12 11 9 8 11 13 15 21 26 37 49 53 59 61 54 54 60 64 74 79 95 98 96 96 96 92 90 88 91 92 91 91
44 44 40 34 31 28 23 20 16 14 12 12 10 9 10 18 19 22 30 29 37 50 60 64 62 62 56 57 63 54 57 86 91 100 99 98 95 93 93 91 90 90 90
43 46 45 43 36 32 28 24 20 16 14 12 10 10 13 27 28 33 44 42 38 50 66 68 66 64 59 54 58 53 64 74 86 91 78 100 100 100 99 95 93 92 91
39 43 45 47 39 35 32 29 22 16 14 12 10 15 33 43 43 45 51 55 50 60 73 73 66 61 54 54 57 75 41 68 74 69 72 94 88 94 93 89 87 90 92
40 42 46 50 42 36 34 31 23 17 15 12 11 45 64 62 61 62 57 64 66 60 65 68 70 64 60 62 53 48 94 65 65 88 88 64 49 57 62 65 71 76 76
36 43 50 52 49 40 36 33 24 20 17 13 20 69 81 81 79 77 76 81 85 82 82 81 83 86 80 75 97 98 93 97 90 80 73 52 45 49 52 49 48 51 62
35 42 48 51 50 43 38 32 25 21 18 14 18 80 88 89 87 87 89 87 85 86 87 87 85 86 81 78 76 76 69 71 60 59 66 56 52 55 50 47 46 46 48
35 45 51 54 52 48 41 34 28 24 22 18 19 46 80 89 91 92 93 91 86 87 86 83 80 78 79 77 76 74 76 73 72 73 68 59 58 66 66 65 61 54 49
36 44 52 57 56 51 42 37 32 29 26 24 23 25 48 78 70 91 94 93 92 90 86 82 79 76 73 75 75 76 72 66 67 87 79 79 78 84 84 82 91 82 87
36 42 50 57 60 57 49 44 38 35 32 30 28 28 36 45 67 74 85 88 87 81 76 80 83 76 75 76 79 72 76 67 65 64 65 72 97 96 98 100 96 98 91
33 39 45 53 60 62 58 53 46 41 38 36 34 31 38 51 74 82 72 54 40 35 31 26 27 66 77 78 81 83 80 77 77 69 84 100 99 100 100 100 99 98 99
32 36 43 48 52 56 56 55 53 48 46 43 42 39 39 47 58 66 65 47 37 37 38 53 56 53 68 77 80 80 78 78 71 67 62 67 47 38 53 50 61 93 99
29 31 36 41 47 52 52 51 51 51 50 48 46 47 49 52 56 60 65 63 58 43 48 66 83 87 88 88 86 84 81 76 65 54 46 40 26 17 13 14 14 19 42
33 28 29 35 39 43 46 49 52 52 50 47 45 43 44 48 53 57 58 62 58 49 46 47 61 82 86 86 84 79 75 65 42 26 21 20 19 19 19 18 16 16 17
40 35 29 24 25 32 38 42 44 46 47 48 50 52 52 53 54 56 60 62 66 63 53 50 51 73 85 82 78 67 45 35 32 29 27 25 26 28 31 30 27 26 20
46 43 36 28 23 21 23 28 35 43 47 51 52 53 55 56 57 58 58 59 61 65 67 56 54 54 52 51 50 45 40 38 37 36 33 29 29 34 39 40 37 33 30
50 50 46 38 27 20 18 19 24 30 36 41 46 48 52 53 56 59 61 61 60 61 61 55 52 51 49 49 50 51 49 47 45 42 37 33 32 31 33 42 41 40 38
52 52 52 49 40 30 20 16 15 16 19 24 31 36 39 45 46 49 50 52 55 59 58 48 44 41 42 42 39 37 37 37 37 40 44 42 39 41 49 48 43 39 36
51 52 54 54 48 40 31 22 18 15 14 16 18 19 22 26 23 26 26 29 36 42 43 35 31 28 25 27 23 22 22 25 28 31 32 37 42 43 40 40 45 45 38
53 55 55 55 54 47 40 30 21 17 15 14 14 15 15 13 12 13 15 18 23 26 32 30 24 24 22 19 16 12 12 13 12 13 13 15 23 32 41 45 43 44 44
56 58 58 57 56 54 49 36 24 20 23 28 29 26 22 18 14 12 11 12 18 22 27 27 21 18 16 21 24 19 16 16 18 18 19 20 20 20 20 20 19 18 20
59 61 60 61 58 56 52 37 28 30 32 33 34 30 23 20 17 15 13 13 15 18 20 22 22 20 17 19 23 26 24 19 18 20 20 17 18 19 20 21 18 16 15
68 68 67 66 62 57 53 40 33 32 36 47 50 48 33 26 26 22 18 15 15 17 17 19 20 19 21 22 25 25 28 27 24 24 26 24 23 23 22 22 21 20 20
73 74 70 68 64 58 52 40 35 48 58 59 58 56 49 47 42 30 24 18 17 19 20 23 24 25 28 30 31 32 32 30 27 23 27 30 18 15 15 16 18 20 20
88 85 87 95 98 94 56 48 64 69 64 62 58 44 44 40 37 32 28 28 29 27 23 21 22 23 24 26 25 27 23 29 25 17 20 32 16 14 12 14 17 20 21
95 99 99 94 75 70 60 64 81 84 74 62 50 40 33 27 25 25 21 18 16 12 14 15 16 17 18 20 24 30 35 38 47 56 47 37 42 48 49 27 28 33 38

GFSMA_850_rhum_213.txt.gz
RH
34 35 36 36 34 31 29 25 22 18 15 12 10 9 8 8 13 14 16 20 23 28 28 34 82 67 57 54 54 56 68 58 82 98 99 85 92 84 89 92 93 93 95
37 39 40 40 40 36 32 30 27 22 16 12 10 9 8 10 20 24 26 30 31 36 38 45 61 76 76 58 56 71 65 49 61 91 90 99 98 99 96 95 95 94 94
36 40 43 44 44 41 35 33 30 24 17 13 11 9 13 22 31 36 39 40 45 44 48 55 60 64 72 64 56 72 74 61 41 70 94 92 98 100 98 93 92 92 94
36 41 45 46 48 44 38 35 32 24 16 13 11 24 44 46 45 47 47 50 57 58 64 64 62 63 61 63 59 79 72 74 62 94 92 80 88 96 97 96 100 100 100
30 35 46 49 50 46 41 37 32 24 18 14 19 50 67 66 65 65 64 67 68 65 62 64 63 64 65 70 59 78 89 77 75 73 84 76 74 79 73 99 96 97 99
30 34 44 48 47 47 43 39 33 25 20 15 31 71 81 81 80 79 80 82 83 81 79 82 84 82 82 87 95 94 95 98 96 54 58 72 83 74 73 51 54 67 78
30 35 41 47 48 46 45 40 33 27 22 17 19 84 89 90 88 86 87 87 85 83 84 84 86 88 86 81 87 95 94 91 86 77 49 62 74 52 70 49 43 45 53
30 33 37 46 48 49 49 41 36 31 28 22 21 49 89 89 92 92 93 92 87 86 86 83 80 78 80 80 78 76 76 87 89 79 67 65 81 73 82 65 59 48 53
30 33 36 43 48 49 50 46 42 36 34 30 27 28 48 75 55 91 96 94 92 89 86 84 80 78 74 75 75 74 72 73 82 99 99 94 90 79 93 97 84 83 91
30 31 35 41 46 50 51 48 46 41 37 36 34 33 35 41 51 70 82 89 83 67 60 58 70 79 77 77 72 68 69 70 76 95 99 100 98 97 100 96 97 91 96
30 32 36 42 47 52 53 52 49 47 43 42 40 38 38 45 60 61 70 49 39 40 31 32 29 60 79 80 80 80 74 76 74 67 67 88 95 98 100 100 98 96 93
30 30 32 37 43 49 53 54 54 52 48 47 45 42 42 42 48 52 50 43 42 42 42 53 54 55 73 80 84 86 88 83 74 62 59 53 41 30 30 40 38 54 96
34 31 29 32 38 42 44 45 49 53 54 53 50 47 45 47 48 53 58 58 58 48 52 70 78 80 85 90 89 89 83 71 62 49 38 30 22 19 13 13 14 14 16
39 37 33 28 26 29 35 40 44 47 48 49 50 49 49 51 52 53 55 60 60 52 51 53 80 85 86 85 82 76 71 64 42 29 24 21 19 18 17 16 15 16 15
44 44 41 37 30 25 24 26 31 38 41 46 51 52 52 53 54 58 58 58 62 64 52 50 50 62 81 80 65 52 41 36 34 33 32 30 26 24 22 22 21 21 20
46 48 48 45 40 31 24 22 22 24 27 34 39 44 47 54 56 57 58 60 61 64 69 53 52 53 55 52 47 42 40 39 38 38 37 34 31 28 33 28 30 33 33
48 49 50 51 49 44 34 24 19 19 20 23 26 32 37 42 50 54 56 58 59 60 62 56 51 48 45 45 45 45 42 39 38 37 37 37 36 34 32 34 38 39 38
48 50 51 52 52 52 49 41 30 22 18 17 16 17 21 27 32 38 42 46 49 50 50 46 43 44 41 36 28 26 26 25 27 28 31 35 39 40 40 40 40 41 39
49 51 53 53 54 54 54 52 48 37 26 20 17 16 16 17 17 20 21 22 28 37 40 34 31 29 30 35 30 21 15 13 13 13 16 20 28 39 45 45 44 40 44
52 54 57 57 57 56 55 55 53 48 37 26 19 16 15 15 15 13 12 12 16 21 28 29 26 26 26 24 20 18 19 16 15 14 13 12 15 22 27 28 30 34 32
58 60 63 64 63 61 58 55 52 49 44 33 26 27 30 30 26 22 17 15 14 16 22 27 27 25 24 30 26 20 16 18 19 18 20 22 24 22 21 20 19 18 17
68 69 68 68 67 66 64 58 53 50 42 36 34 32 32 33 32 26 23 20 16 15 18 28 29 27 23 28 33 28 22 20 20 20 22 21 21 21 22 22 22 21 21
68 70 73 75 73 70 67 63 57 50 42 37 35 35 44 48 44 32 24 21 18 16 15 18 21 19 21 20 27 28 31 30 29 30 29 23 18 15 16 15 16 16 17
86 94 96 98 97 94 84 82 94 81 73 47 40 54 59 59 57 48 44 38 30 22 18 17 17 16 21 26 29 32 34 32 28 22 26 17 10 9 11 12 12 12 12
63 65 75 76 81 95 100 100 100 72 54 62 71 67 64 60 52 51 48 42 37 34 30 32 33 32 30 28 25 28 20 28 26 22 23 32 14 15 12 12 14 17 22
65 65 63 65 84 89 86 82 73 76 81 84 85 82 87 68 52 45 45 42 33 22 24 26 24 22 21 20 23 22 23 24 29 38 32 28 28 29 27 18 15 20 33

GFSMA_850_rhum_219.txt.gz
RH
40 42 50 55 50 43 45 40 37 32 31 33 33 32 28 23 19 43 56 54 24 24 25 27 29 75 92 91 80 71 58 58 61 59 89 93 83 55 51 53 75 81 80
31 35 40 62 52 42 40 39 40 34 40 42 33 52 66 70 65 58 61 68 52 33 31 33 72 86 74 70 62 77 81 65 74 79 87 98 91 81 71 61 64 74 79
32 32 33 36 56 42 40 38 44 33 40 38 46 70 76 77 75 74 74 76 76 74 48 41 47 44 48 54 54 87 93 63 69 80 82 94 97 96 54 64 66 54 72
28 29 31 45 50 45 48 41 39 33 30 39 41 77 83 86 83 80 81 85 80 79 88 74 48 46 48 51 81 59 87 70 71 82 86 91 99 100 93 76 73 54 72
29 30 34 47 47 47 49 44 40 35 30 27 32 80 90 92 90 87 88 89 73 64 75 85 68 70 67 76 87 84 72 61 63 90 85 88 100 100 90 81 72 59 67
31 31 36 43 41 48 66 48 41 35 42 28 29 80 91 89 87 84 88 86 82 74 80 76 84 95 87 81 85 94 74 90 82 94 83 82 92 100 98 85 83 97 100
31 30 33 36 43 52 48 48 41 40 50 30 53 51 84 79 88 86 87 87 85 80 76 73 75 80 93 99 80 73 72 79 90 86 91 88 98 99 100 89 90 96 88
30 28 29 31 35 41 52 45 42 40 58 40 36 57 54 70 84 78 79 78 80 80 79 76 73 72 82 99 83 73 70 89 90 90 90 89 88 87 94 93 93 88 83
29 28 28 32 36 40 46 46 45 43 40 55 37 39 52 47 46 64 86 86 75 72 58 55 69 74 71 98 98 80 65 75 95 87 89 81 94 88 91 87 83 81 81
30 29 28 29 32 39 46 51 49 47 45 54 52 45 33 39 62 52 59 73 62 49 29 23 29 46 77 91 91 71 65 66 70 84 96 97 99 96 91 82 95 84 81
32 31 30 29 31 36 43 47 47 49 50 50 57 54 62 65 74 74 61 53 58 58 49 31 34 60 86 99 99 80 72 72 68 66 71 83 91 90 96 91 75 62 52
34 33 32 30 30 31 36 40 41 42 46 48 49 52 56 71 68 72 69 66 68 63 56 40 43 55 62 72 82 78 76 76 75 66 52 46 42 49 72 78 83 77 88
37 36 36 35 32 30 29 31 34 37 39 41 44 49 56 50 56 56 71 73 72 70 67 63 46 51 56 66 69 75 75 70 62 55 51 36 26 24 29 28 37 66 80
40 40 40 41 38 35 31 28 27 27 29 33 37 42 46 49 54 54 62 73 71 65 63 64 64 52 60 62 66 69 66 57 52 39 32 29 27 23 19 18 17 17 20
41 42 43 44 44 43 40 35 30 26 25 25 27 30 35 40 46 47 52 60 76 77 64 58 62 62 54 55 54 58 48 41 39 38 36 34 33 31 28 24 21 20 20
41 43 45 46 46 46 46 45 42 37 31 26 24 24 24 28 35 38 43 50 61 73 82 61 67 71 70 51 48 42 39 38 40 40 39 38 36 34 32 33 33 31 30
42 43 45 47 49 49 49 49 49 48 44 40 34 30 27 23 23 26 31 31 40 58 74 45 61 70 71 76 53 46 34 25 25 27 31 35 37 37 36 33 34 42 43
47 46 46 47 49 50 51 52 52 51 50 49 47 43 39 34 27 25 25 29 32 37 58 50 44 63 72 67 51 38 27 28 24 20 18 23 29 35 39 41 44 42 38
55 53 53 51 50 52 53 54 56 56 54 52 51 50 47 40 35 30 28 29 34 39 49 57 27 36 52 39 32 28 25 19 17 16 15 16 18 22 29 36 41 41 41
63 62 61 60 58 56 57 59 61 62 60 58 55 52 50 47 41 33 28 29 31 38 38 40 31 24 38 45 40 23 26 31 21 16 12 12 11 11 15 22 26 31 37
72 72 72 71 70 70 69 69 71 71 69 66 62 58 54 51 47 39 31 32 37 42 38 35 47 41 37 40 40 30 32 27 42 27 17 15 17 20 22 22 20 19 19
75 76 78 80 80 82 84 84 85 87 83 76 71 68 64 58 53 50 44 38 36 39 46 44 46 48 40 43 49 45 44 32 48 35 30 21 24 23 25 21 19 20 20
27 34 41 49 55 60 63 67 80 92 96 99 100 100 99 99 91 89 90 63 41 38 39 36 47 56 51 42 69 71 50 33 28 47 37 23 45 30 26 24 21 19 15
9 9 9 9 10 12 18 30 44 53 64 75 82 88 91 92 96 99 96 89 74 69 65 59 47 37 33 58 75 79 71 58 45 50 37 32 29 32 28 19 11 10 10
12 11 13 12 11 12 15 18 29 37 48 76 97 100 95 92 85 82 93 93 91 82 74 67 64 64 64 59 71 95 89 84 65 44 40 41 29 19 14 12 12 13 12
14 16 16 18 24 24 18 23 26 34 46 56 75 60 56 69 84 87 99 100 100 98 96 98 96 89 73 65 50 67 77 69 62 66 46 42 20 24 19 16 15 14 14

GFSMA_850_rhum_225.txt.gz
RH
27 29 30 29 30 31 30 29 28 29 28 28 28 35 48 52 55 55 46 54 71 65 48 60 87 83 90 76 75 76 62 53 55 63 44 44 47 56 77 63 42 87 89
27 26 28 30 30 31 30 29 28 28 29 28 26 37 53 60 68 70 66 57 67 70 72 63 53 43 41 61 95 89 75 60 50 58 49 55 57 56 52 69 80 70 88
26 28 29 29 30 30 31 31 31 31 30 28 24 31 46 60 69 76 74 72 72 75 71 68 58 50 46 69 97 89 78 68 56 59 57 61 61 63 60 58 76 86 95
28 28 29 29 29 31 31 31 31 31 30 30 25 30 39 49 67 73 72 62 64 63 63 64 63 67 68 60 84 100 84 75 73 68 68 73 68 73 73 67 63 68 80
29 29 29 28 30 33 32 33 35 32 32 31 28 31 46 48 52 61 64 64 67 66 65 67 68 68 72 71 66 78 88 74 63 80 76 78 79 84 75 74 74 85 75
30 29 27 27 30 33 35 37 37 36 36 34 30 31 47 70 65 54 52 58 62 67 66 67 70 73 70 67 64 63 71 67 70 84 90 80 75 87 90 82 92 92 84
31 28 26 27 30 33 34 37 39 37 36 35 33 42 54 68 80 52 57 52 48 48 51 56 62 74 76 69 60 61 63 88 89 91 86 89 80 81 81 78 87 95 97
30 28 27 27 28 33 34 38 41 39 39 40 39 37 44 63 72 45 63 60 54 49 41 26 21 37 70 72 65 63 62 73 98 98 94 89 88 84 80 89 98 99 99
31 29 28 28 28 29 30 33 40 39 39 42 43 45 43 46 37 55 67 62 59 56 54 50 36 24 41 67 66 64 65 58 66 72 82 82 79 89 86 90 86 99 100
32 31 30 29 29 28 29 32 34 37 36 38 45 47 49 53 53 45 49 57 57 59 54 52 47 33 33 42 41 50 67 64 60 60 62 64 66 67 69 91 99 87 98
32 33 33 32 31 30 30 30 32 34 34 36 39 40 44 49 66 76 65 45 39 45 50 49 51 44 43 44 46 53 60 60 57 63 59 56 50 42 49 70 74 93 85
33 35 36 35 35 35 32 30 29 30 31 33 36 40 42 47 49 55 58 45 40 35 38 43 52 52 44 42 48 53 60 62 56 57 54 48 43 36 26 34 59 95 97
34 35 37 38 38 38 37 36 34 31 29 28 29 31 35 41 46 50 52 48 46 31 31 32 46 55 53 47 43 46 48 52 53 47 39 37 34 30 26 20 21 38 64
36 36 37 40 42 42 42 41 40 39 36 32 29 27 27 30 35 41 47 51 48 38 30 31 40 48 54 51 47 46 44 43 43 39 35 37 36 35 33 29 25 22 19
42 40 41 41 43 44 46 46 46 46 45 43 41 38 35 32 30 32 39 47 58 66 44 36 34 50 51 51 46 40 40 40 39 34 29 25 33 38 38 37 33 31 30
50 48 46 44 44 46 48 49 50 50 51 51 50 48 47 46 44 41 38 40 48 59 68 37 37 40 38 40 52 57 37 32 27 25 26 24 21 24 34 36 35 32 28
58 57 55 52 50 49 50 50 51 53 53 53 54 54 53 53 51 51 52 50 47 55 67 35 36 33 29 30 35 46 41 30 24 20 18 17 20 20 19 26 33 34 32
67 66 64 62 60 59 58 57 55 56 57 57 57 57 57 57 56 55 56 55 54 54 63 62 40 36 35 31 27 26 26 28 23 21 20 16 15 15 16 19 24 31 34
72 70 69 68 67 66 66 65 65 64 63 62 62 62 62 63 62 61 59 58 55 54 57 66 63 43 39 37 37 32 27 26 25 25 23 20 17 14 13 14 18 24 34
70 71 72 72 73 75 76 76 77 78 78 78 77 77 77 77 76 74 71 68 64 60 58 58 64 64 50 43 45 42 37 35 35 33 30 26 22 18 14 13 13 16 24
16 14 13 14 14 16 18 20 26 32 38 45 55 67 76 84 92 98 97 98 95 79 85 80 65 58 63 57 49 46 46 40 39 37 35 31 30 27 20 14 15 15 19
9 8 8 8 8 8 8 8 8 8 9 10 11 11 15 22 29 47 63 86 97 100 100 100 98 99 98 89 86 70 61 64 61 45 42 36 35 28 27 20 18 22 23
7 7 7 8 8 8 8 9 10 12 12 12 13 15 16 16 16 19 26 40 54 75 91 100 99 100 98 91 92 92 86 74 76 64 65 58 43 35 30 30 30 31 25
12 13 14 15 15 15 15 15 16 18 20 21 22 24 27 25 25 33 43 41 30 40 69 78 91 95 96 95 97 97 100 99 82 74 80 79 54 47 37 30 31 31 31
16 18 20 22 25 26 27 29 30 34 37 38 36 36 37 38 33 43 76 74 62 57 51 51 55 58 58 73 94 98 99 99 96 86 68 83 76 53 56 44 40 40 36
23 23 23 23 26 30 32 38 41 44 45 44 43 46 48 47 49 49 91 87 90 80 86 72 56 51 50 51 62 92 97 98 97 99 84 94 94 82 80 60 50 44 38